Torna al catalogo

STARLINK-36486

AttivoComunicazioniVLEO
NORAD 67335·PAYLOAD·🇺🇸 United States

Lanciato Jan 9, 2026 da Cape Canaveral Space Force Station

Loading…

Prossimi Passaggi (prossime 24 ore)

TLE

AggiornatoSource: CelesTrak SupGP

Epoca: Sep 15, 2026, 03:07 UTC

1 67335C 26003B   26258.13034722 -.00036858  00000+0 -13352-2 0  2585
2 67335  42.9991 236.9692 0001364 268.5798 290.3405 15.27591283    13

Traccia STARLINK-36486 in tempo reale con AllMySat

Download on the App Store